Location: Albany
(35.0170°S, 117.8920°E)
Time: 21:43:57
(UTC+08:00)

A-11 Canister half - Pass Details

Date: 28 January 2021
Orbit: 1525 x 1684 km, 47.3° (Epoch: 03 March)

Event Time Altitude Azimuth Distance (km) Brightness Sun altitude
Rises 04:22:09 0° 258° (WSW) 4,939 11.2 -11.9°
Reaches altitude 10° 04:25:40 10° 251° (WSW) 3,941 10.8 -11.3°
Maximum altitude 04:35:03 41° 183° (S) 2,259 10.1 -9.7°
Drops below altitude 10° 04:44:11 10° 115° (ESE) 3,836 12.8 -8.1°
Sets 04:47:33 0° 107° (ESE) 4,796 13.6 -7.5°
